Time,TemperatureF,DewpointF,PressureIn,WindDirection,WindDirectionDegrees,WindSpeedMPH,WindSpeedGustMPH,Humidity,HourlyPrecipIn,Conditions,Clouds,dailyrainin,SoftwareType,DateUTC
2013-02-13 00:00:00,32.2,26.7,29.78,West,281,0.0,1.0,80,0.00,,,0.01,VWS V14.01,2013-02-13 05:00:00,
2013-02-13 00:01:00,32.1,26.6,29.78,West,281,0.0,1.0,80,0.00,,,0.01,VWS V14.01,2013-02-13 05:01:00,
2013-02-13 00:06:00,32.0,26.8,29.78,West,281,0.0,1.0,81,0.00,,,0.00,VWS V14.01,2013-02-13 05:06:00,
2013-02-13 00:11:00,31.9,26.7,29.79,West,281,0.0,2.0,81,0.00,,,0.00,VWS V14.01,2013-02-13 05:11:00,
2013-02-13 00:16:00,31.7,26.8,29.79,West,281,0.0,2.0,82,0.00,,,0.00,VWS V14.01,2013-02-13 05:16:00,
2013-02-13 00:21:00,31.6,27.0,29.78,West,281,0.0,2.0,83,0.00,,,0.00,VWS V14.01,2013-02-13 05:21:00,
2013-02-13 00:26:00,31.5,26.9,29.78,West,281,0.0,2.0,83,0.00,,,0.00,VWS V14.01,2013-02-13 05:26:00,
2013-02-13 00:30:00,30.9,26.4,29.78,West,281,0.0,2.0,83,0.00,,,0.00,VWS V14.01,2013-02-13 05:30:00,
2013-02-13 00:31:00,31.4,26.8,29.77,West,281,0.0,2.0,83,0.00,,,0.00,VWS V14.01,2013-02-13 05:31:00,
2013-02-13 00:36:00,31.4,26.8,29.77,West,281,0.0,1.0,83,0.00,,,0.00,VWS V14.01,2013-02-13 05:36:00,
2013-02-13 00:41:00,31.3,26.5,29.77,West,281,0.0,1.0,82,0.00,,,0.00,VWS V14.01,2013-02-13 05:41:00,
2013-02-13 00:47:00,31.3,26.5,29.77,West,281,0.0,1.0,82,0.00,,,0.00,VWS V14.01,2013-02-13 05:47:00,
2013-02-13 00:52:00,31.2,26.4,29.78,West,281,0.0,1.0,82,0.00,,,0.00,VWS V14.01,2013-02-13 05:52:00,
2013-02-13 00:57:00,31.0,26.2,29.78,West,281,1.0,1.0,82,0.00,,,0.00,VWS V14.01,2013-02-13 05:57:00,
2013-02-13 01:00:00,31.1,26.3,29.78,West,281,1.0,2.0,82,0.00,,,0.00,VWS V14.01,2013-02-13 06:00:00,
2013-02-13 01:02:00,31.0,26.5,29.78,West,281,1.0,1.0,83,0.00,,,0.00,VWS V14.01,2013-02-13 06:02:00,
2013-02-13 01:07:00,31.0,26.5,29.78,West,281,1.0,2.0,83,0.00,,,0.00,VWS V14.01,2013-02-13 06:07:00,
2013-02-13 01:12:00,31.1,26.5,29.78,West,281,0.0,2.0,83,0.00,,,0.00,VWS V14.01,2013-02-13 06:12:00,
2013-02-13 01:17:00,31.0,26.5,29.78,West,281,0.0,2.0,83,0.00,,,0.00,VWS V14.01,2013-02-13 06:17:00,
2013-02-13 01:22:00,30.8,26.3,29.78,West,281,0.0,2.0,83,0.00,,,0.00,VWS V14.01,2013-02-13 06:22:00,
2013-02-13 01:27:00,30.9,26.4,29.78,West,281,0.0,2.0,83,0.00,,,0.00,VWS V14.01,2013-02-13 06:27:00,
2013-02-13 01:30:00,30.9,25.8,29.79,West,281,0.0,3.0,81,0.00,,,0.00,VWS V14.01,2013-02-13 06:30:00,
2013-02-13 01:32:00,30.9,26.4,29.78,West,281,0.0,0.0,83,0.00,,,0.00,VWS V14.01,2013-02-13 06:32:00,
2013-02-13 01:37:00,30.9,26.4,29.79,West,281,0.0,1.0,83,0.00,,,0.00,VWS V14.01,2013-02-13 06:37:00,
2013-02-13 01:42:00,31.0,26.5,29.79,West,281,1.0,2.0,83,0.00,,,0.00,VWS V14.01,2013-02-13 06:42:00,
2013-02-13 01:47:00,31.0,26.5,29.78,West,281,0.0,2.0,83,0.00,,,0.00,VWS V14.01,2013-02-13 06:47:00,
2013-02-13 01:52:00,31.1,26.3,29.78,West,281,0.0,2.0,82,0.00,,,0.00,VWS V14.01,2013-02-13 06:52:00,
2013-02-13 01:57:00,31.1,26.3,29.78,West,281,0.0,2.0,82,0.00,,,0.00,VWS V14.01,2013-02-13 06:57:00,
2013-02-13 02:00:00,31.1,26.0,29.80,West,271,0.0,4.0,81,0.00,,,0.00,VWS V14.01,2013-02-13 07:00:00,
2013-02-13 02:02:00,31.1,26.3,29.78,West,281,1.0,2.0,82,0.00,,,0.00,VWS V14.01,2013-02-13 07:02:00,
2013-02-13 02:07:00,31.1,26.3,29.78,West,281,0.0,2.0,82,0.00,,,0.00,VWS V14.01,2013-02-13 07:07:00,
2013-02-13 02:12:00,31.2,26.4,29.78,West,281,0.0,2.0,82,0.00,,,0.00,VWS V14.01,2013-02-13 07:12:00,
2013-02-13 02:17:00,31.1,26.3,29.78,West,281,0.0,2.0,82,0.00,,,0.00,VWS V14.01,2013-02-13 07:17:00,
2013-02-13 02:22:00,30.9,26.1,29.78,West,281,1.0,2.0,82,0.00,,,0.00,VWS V14.01,2013-02-13 07:22:00,
2013-02-13 02:27:00,30.9,26.1,29.78,West,281,1.0,3.0,82,0.00,,,0.00,VWS V14.01,2013-02-13 07:27:00,
2013-02-13 02:30:00,31.1,25.1,29.80,West,271,1.0,5.0,78,0.00,,,0.00,VWS V14.01,2013-02-13 07:30:00,
2013-02-13 02:33:00,30.9,25.8,29.79,West,281,2.0,3.0,81,0.00,,,0.00,VWS V14.01,2013-02-13 07:33:00,
2013-02-13 02:38:00,31.0,25.9,29.79,West,281,1.0,3.0,81,0.00,,,0.00,VWS V14.01,2013-02-13 07:38:00,
2013-02-13 02:43:00,30.9,25.5,29.79,West,281,0.0,3.0,80,0.00,,,0.00,VWS V14.01,2013-02-13 07:43:00,
2013-02-13 02:48:00,30.9,25.8,29.79,West,275,1.0,4.0,81,0.00,,,0.00,VWS V14.01,2013-02-13 07:48:00,
2013-02-13 02:53:00,31.0,25.6,29.79,West,275,1.0,4.0,80,0.00,,,0.00,VWS V14.01,2013-02-13 07:53:00,
2013-02-13 02:58:00,31.0,25.6,29.79,West,271,2.0,4.0,80,0.00,,,0.00,VWS V14.01,2013-02-13 07:58:00,
2013-02-13 03:00:00,30.8,24.5,29.80,West,271,2.0,3.0,77,0.00,,,0.00,VWS V14.01,2013-02-13 08:00:00,
2013-02-13 03:03:00,31.1,26.0,29.80,West,271,1.0,1.0,81,0.00,,,0.00,VWS V14.01,2013-02-13 08:03:00,
2013-02-13 03:08:00,31.1,26.0,29.80,West,271,2.0,4.0,81,0.00,,,0.00,VWS V14.01,2013-02-13 08:08:00,
2013-02-13 03:13:00,31.1,26.0,29.80,West,271,0.0,4.0,81,0.00,,,0.00,VWS V14.01,2013-02-13 08:13:00,
2013-02-13 03:18:00,31.1,25.7,29.80,West,271,1.0,5.0,80,0.00,,,0.00,VWS V14.01,2013-02-13 08:18:00,
2013-02-13 03:22:00,31.1,25.4,29.80,West,271,2.0,5.0,79,0.00,,,0.00,VWS V14.01,2013-02-13 08:22:00,
2013-02-13 03:27:00,31.2,25.1,29.80,West,271,1.0,5.0,78,0.00,,,0.00,VWS V14.01,2013-02-13 08:27:00,
2013-02-13 03:30:00,30.5,24.2,29.80,West,277,0.0,5.0,77,0.00,,,0.00,VWS V14.01,2013-02-13 08:30:00,
2013-02-13 03:32:00,31.1,25.0,29.80,West,271,1.0,3.0,78,0.00,,,0.00,VWS V14.01,2013-02-13 08:32:00,
2013-02-13 03:38:00,31.1,25.0,29.80,West,271,1.0,3.0,78,0.00,,,0.00,VWS V14.01,2013-02-13 08:38:00,
2013-02-13 03:43:00,31.1,25.0,29.80,West,271,2.0,3.0,78,0.00,,,0.00,VWS V14.01,2013-02-13 08:43:00,
2013-02-13 03:48:00,31.0,25.0,29.80,West,271,1.0,3.0,78,0.00,,,0.00,VWS V14.01,2013-02-13 08:48:00,
2013-02-13 03:53:00,30.9,24.9,29.80,West,277,1.0,3.0,78,0.00,,,0.00,VWS V14.01,2013-02-13 08:53:00,
2013-02-13 03:58:00,30.9,24.9,29.80,West,271,1.0,3.0,78,0.00,,,0.00,VWS V14.01,2013-02-13 08:58:00,
2013-02-13 04:00:00,30.6,24.3,29.80,West,277,1.0,3.0,77,0.00,,,0.00,VWS V14.01,2013-02-13 09:00:00,
2013-02-13 04:03:00,30.8,24.5,29.80,West,271,1.0,2.0,77,0.00,,,0.00,VWS V14.01,2013-02-13 09:03:00,
2013-02-13 04:08:00,30.8,24.5,29.80,West,277,1.0,5.0,77,0.00,,,0.00,VWS V14.01,2013-02-13 09:08:00,
2013-02-13 04:13:00,30.7,24.4,29.80,West,277,3.0,5.0,77,0.00,,,0.00,VWS V14.01,2013-02-13 09:13:00,
2013-02-13 04:18:00,30.7,24.4,29.80,West,277,0.0,5.0,77,0.00,,,0.00,VWS V14.01,2013-02-13 09:18:00,
2013-02-13 04:23:00,30.5,24.2,29.80,West,277,1.0,5.0,77,0.00,,,0.00,VWS V14.01,2013-02-13 09:23:00,
2013-02-13 04:28:00,30.5,24.2,29.80,West,277,1.0,5.0,77,0.00,,,0.00,VWS V14.01,2013-02-13 09:28:00,
2013-02-13 04:30:00,30.2,24.2,29.80,West,277,1.0,3.0,78,0.00,,,0.00,VWS V14.01,2013-02-13 09:30:00,
2013-02-13 04:33:00,30.4,24.1,29.80,West,277,0.0,1.0,77,0.00,,,0.00,VWS V14.01,2013-02-13 09:33:00,
2013-02-13 04:38:00,30.4,24.4,29.80,West,277,0.0,1.0,78,0.00,,,0.00,VWS V14.01,2013-02-13 09:38:00,
2013-02-13 04:43:00,30.3,24.3,29.80,West,277,0.0,1.0,78,0.00,,,0.00,VWS V14.01,2013-02-13 09:43:00,
2013-02-13 04:48:00,30.4,24.4,29.80,West,277,0.0,1.0,78,0.00,,,0.00,VWS V14.01,2013-02-13 09:48:00,
2013-02-13 04:53:00,30.5,24.5,29.80,West,277,2.0,3.0,78,0.00,,,0.00,VWS V14.01,2013-02-13 09:53:00,
2013-02-13 04:58:00,30.5,24.2,29.80,West,277,2.0,3.0,77,0.00,,,0.00,VWS V14.01,2013-02-13 09:58:00,
2013-02-13 05:00:00,30.2,24.2,29.80,West,277,0.0,3.0,78,0.00,,,0.00,VWS V14.01,2013-02-13 10:00:00,
2013-02-13 05:03:00,30.6,24.3,29.80,West,277,0.0,1.0,77,0.00,,,0.00,VWS V14.01,2013-02-13 10:03:00,
2013-02-13 05:08:00,30.6,24.3,29.81,West,277,1.0,2.0,77,0.00,,,0.00,VWS V14.01,2013-02-13 10:08:00,
2013-02-13 05:13:00,30.6,24.3,29.80,West,277,1.0,3.0,77,0.00,,,0.00,VWS V14.01,2013-02-13 10:13:00,
2013-02-13 05:18:00,30.4,24.1,29.81,West,277,0.0,3.0,77,0.00,,,0.00,VWS V14.01,2013-02-13 10:18:00,
2013-02-13 05:23:00,30.3,24.0,29.81,West,277,0.0,3.0,77,0.00,,,0.00,VWS V14.01,2013-02-13 10:23:00,
2013-02-13 05:28:00,30.2,24.2,29.80,West,277,1.0,3.0,78,0.00,,,0.00,VWS V14.01,2013-02-13 10:28:00,
2013-02-13 05:30:00,29.3,23.6,29.79,West,277,0.0,2.0,79,0.00,,,0.00,VWS V14.01,2013-02-13 10:30:00,
2013-02-13 05:33:00,30.2,24.2,29.80,West,277,0.0,3.0,78,0.00,,,0.00,VWS V14.01,2013-02-13 10:33:00,
2013-02-13 05:38:00,30.2,24.2,29.80,West,277,0.0,3.0,78,0.00,,,0.00,VWS V14.01,2013-02-13 10:38:00,
2013-02-13 05:43:00,30.3,24.3,29.80,West,277,1.0,3.0,78,0.00,,,0.00,VWS V14.01,2013-02-13 10:43:00,
2013-02-13 05:48:00,30.3,24.3,29.80,West,277,1.0,3.0,78,0.00,,,0.00,VWS V14.01,2013-02-13 10:48:00,
2013-02-13 05:53:00,30.3,24.3,29.80,West,277,1.0,3.0,78,0.00,,,0.00,VWS V14.01,2013-02-13 10:53:00,
2013-02-13 05:58:00,30.2,24.2,29.80,West,277,1.0,3.0,78,0.00,,,0.00,VWS V14.01,2013-02-13 10:58:00,
2013-02-13 06:00:00,28.7,23.3,29.80,West,277,0.0,2.0,80,0.00,,,0.00,VWS V14.01,2013-02-13 11:00:00,
2013-02-13 06:03:00,30.2,24.2,29.80,West,277,0.0,1.0,78,0.00,,,0.00,VWS V14.01,2013-02-13 11:03:00,
2013-02-13 06:08:00,30.1,24.1,29.79,West,277,0.0,2.0,78,0.00,,,0.00,VWS V14.01,2013-02-13 11:08:00,
2013-02-13 06:13:00,29.9,23.9,29.79,West,277,0.0,2.0,78,0.00,,,0.00,VWS V14.01,2013-02-13 11:13:00,
2013-02-13 06:19:00,29.8,23.8,29.79,West,277,0.0,2.0,78,0.00,,,0.00,VWS V14.01,2013-02-13 11:19:00,
2013-02-13 06:24:00,29.6,23.6,29.79,West,277,0.0,2.0,78,0.00,,,0.00,VWS V14.01,2013-02-13 11:24:00,
2013-02-13 06:29:00,29.4,23.7,29.79,West,277,0.0,2.0,79,0.00,,,0.00,VWS V14.01,2013-02-13 11:29:00,
2013-02-13 06:30:00,30.0,24.6,29.80,West,277,0.0,2.0,80,0.00,,,0.00,VWS V14.01,2013-02-13 11:30:00,
2013-02-13 06:34:00,29.2,23.5,29.79,West,277,1.0,2.0,79,0.00,,,0.00,VWS V14.01,2013-02-13 11:34:00,
2013-02-13 06:39:00,29.1,23.7,29.80,West,277,0.0,2.0,80,0.00,,,0.00,VWS V14.01,2013-02-13 11:39:00,
2013-02-13 06:44:00,28.9,23.5,29.80,West,277,0.0,2.0,80,0.00,,,0.00,VWS V14.01,2013-02-13 11:44:00,
2013-02-13 06:49:00,28.9,23.5,29.80,West,277,0.0,2.0,80,0.00,,,0.00,VWS V14.01,2013-02-13 11:49:00,
2013-02-13 06:55:00,28.8,23.4,29.80,West,277,0.0,2.0,80,0.00,,,0.00,VWS V14.01,2013-02-13 11:55:00,
2013-02-13 07:00:00,28.7,23.3,29.80,West,277,0.0,2.0,80,0.00,,,0.00,VWS V14.01,2013-02-13 12:00:00,
2013-02-13 07:05:00,28.8,23.7,29.80,West,277,1.0,2.0,81,0.00,,,0.00,VWS V14.01,2013-02-13 12:05:00,
2013-02-13 07:10:00,29.0,23.9,29.80,West,277,1.0,2.0,81,0.00,,,0.00,VWS V14.01,2013-02-13 12:10:00,
2013-02-13 07:15:00,29.1,23.7,29.80,West,277,0.0,2.0,80,0.00,,,0.00,VWS V14.01,2013-02-13 12:15:00,
2013-02-13 07:20:00,29.3,23.9,29.80,West,277,1.0,2.0,80,0.00,,,0.00,VWS V14.01,2013-02-13 12:20:00,
2013-02-13 07:25:00,29.6,24.2,29.80,West,277,0.0,2.0,80,0.00,,,0.00,VWS V14.01,2013-02-13 12:25:00,
2013-02-13 07:30:00,29.9,24.5,29.80,West,277,0.0,2.0,80,0.00,,,0.00,VWS V14.01,2013-02-13 12:30:00,
2013-02-13 07:35:00,30.2,24.8,29.80,West,277,0.0,1.0,80,0.00,,,0.00,VWS V14.01,2013-02-13 12:35:00,
2013-02-13 07:40:00,30.4,24.7,29.80,West,277,0.0,2.0,79,0.00,,,0.00,VWS V14.01,2013-02-13 12:40:00,
2013-02-13 07:45:00,30.8,24.8,29.80,West,277,0.0,3.0,78,0.00,,,0.00,VWS V14.01,2013-02-13 12:45:00,
2013-02-13 07:50:00,31.2,25.1,29.80,West,277,0.0,3.0,78,0.00,,,0.00,VWS V14.01,2013-02-13 12:50:00,
2013-02-13 07:55:00,31.7,25.3,29.80,West,277,0.0,3.0,77,0.00,,,0.00,VWS V14.01,2013-02-13 12:55:00,
2013-02-13 08:00:00,37.3,27.7,29.82,NNW,332,0.0,5.0,68,0.00,,,0.00,VWS V14.01,2013-02-13 13:00:00,
2013-02-13 08:01:00,32.2,25.5,29.80,West,277,0.0,3.0,76,0.00,,,0.00,VWS V14.01,2013-02-13 13:01:00,
2013-02-13 08:06:00,32.7,25.7,29.80,West,277,0.0,2.0,75,0.00,,,0.00,VWS V14.01,2013-02-13 13:06:00,
2013-02-13 08:11:00,33.2,25.8,29.81,West,277,0.0,2.0,74,0.00,,,0.00,VWS V14.01,2013-02-13 13:11:00,
2013-02-13 08:16:00,33.7,26.3,29.81,West,277,1.0,3.0,74,0.00,,,0.00,VWS V14.01,2013-02-13 13:16:00,
2013-02-13 08:21:00,34.1,26.4,29.81,West,277,1.0,3.0,73,0.00,,,0.00,VWS V14.01,2013-02-13 13:21:00,
2013-02-13 08:26:00,34.5,26.4,29.81,West,277,3.0,3.0,72,0.00,,,0.00,VWS V14.01,2013-02-13 13:26:00,
2013-02-13 08:30:00,39.2,27.7,29.81,NW,323,0.0,5.0,63,0.00,,,0.00,VWS V14.01,2013-02-13 13:30:00,
2013-02-13 08:31:00,34.7,26.3,29.81,West,277,0.0,4.0,71,0.00,,,0.00,VWS V14.01,2013-02-13 13:31:00,
2013-02-13 08:36:00,34.9,26.1,29.81,WNW,292,2.0,3.0,70,0.00,,,0.00,VWS V14.01,2013-02-13 13:36:00,
2013-02-13 08:42:00,35.3,26.9,29.81,WNW,292,0.0,5.0,71,0.00,,,0.00,VWS V14.01,2013-02-13 13:42:00,
2013-02-13 08:47:00,35.8,27.0,29.82,WNW,292,0.0,5.0,70,0.00,,,0.00,VWS V14.01,2013-02-13 13:47:00,
2013-02-13 08:52:00,36.3,27.1,29.82,WNW,292,1.0,5.0,69,0.00,,,0.00,VWS V14.01,2013-02-13 13:52:00,
2013-02-13 08:57:00,36.6,27.4,29.82,NNW,332,2.0,5.0,69,0.00,,,0.00,VWS V14.01,2013-02-13 13:57:00,
2013-02-13 09:00:00,40.4,28.0,29.80,NW,321,2.0,6.0,61,0.00,,,0.00,VWS V14.01,2013-02-13 14:00:00,
2013-02-13 09:02:00,37.3,27.7,29.82,NNW,332,0.0,0.0,68,0.00,,,0.00,VWS V14.01,2013-02-13 14:02:00,
2013-02-13 09:07:00,37.9,27.9,29.82,NNW,331,3.0,4.0,67,0.00,,,0.00,VWS V14.01,2013-02-13 14:07:00,
2013-02-13 09:12:00,38.2,28.2,29.82,WNW,286,3.0,4.0,67,0.00,,,0.00,VWS V14.01,2013-02-13 14:12:00,
2013-02-13 09:18:00,38.5,28.1,29.82,WNW,286,1.0,4.0,66,0.00,,,0.00,VWS V14.01,2013-02-13 14:18:00,
2013-02-13 09:23:00,38.8,27.7,29.81,NW,325,0.0,4.0,64,0.00,,,0.00,VWS V14.01,2013-02-13 14:23:00,
2013-02-13 09:28:00,39.2,28.1,29.81,NW,323,4.0,5.0,64,0.00,,,0.00,VWS V14.01,2013-02-13 14:28:00,
2013-02-13 09:30:00,40.7,26.7,29.78,WNW,286,1.0,6.0,57,0.00,,,0.00,VWS V14.01,2013-02-13 14:30:00,
2013-02-13 09:33:00,39.3,27.8,29.81,NW,323,0.0,0.0,63,0.00,,,0.00,VWS V14.01,2013-02-13 14:33:00,
2013-02-13 09:38:00,39.5,27.2,29.80,West,279,3.0,6.0,61,0.00,,,0.00,VWS V14.01,2013-02-13 14:38:00,
2013-02-13 09:43:00,39.1,26.8,29.80,NW,323,4.0,6.0,61,0.00,,,0.00,VWS V14.01,2013-02-13 14:43:00,
2013-02-13 09:48:00,39.1,27.2,29.80,NW,318,2.0,6.0,62,0.00,,,0.00,VWS V14.01,2013-02-13 14:48:00,
2013-02-13 09:53:00,39.8,28.2,29.80,NW,316,3.0,6.0,63,0.00,,,0.00,VWS V14.01,2013-02-13 14:53:00,
2013-02-13 09:58:00,40.1,27.8,29.80,NW,321,1.0,6.0,61,0.00,,,0.00,VWS V14.01,2013-02-13 14:58:00,
2013-02-13 10:00:00,42.0,27.5,29.78,NW,310,2.0,5.0,56,0.00,,,0.00,VWS V14.01,2013-02-13 15:00:00,
2013-02-13 10:03:00,40.5,28.1,29.79,NNW,331,1.0,3.0,61,0.00,,,0.00,VWS V14.01,2013-02-13 15:03:00,
2013-02-13 10:08:00,40.9,28.1,29.79,WNW,292,1.0,4.0,60,0.00,,,0.00,VWS V14.01,2013-02-13 15:08:00,
2013-02-13 10:13:00,40.9,27.7,29.79,NW,322,1.0,6.0,59,0.00,,,0.00,VWS V14.01,2013-02-13 15:13:00,
2013-02-13 10:18:00,40.9,27.3,29.79,NW,319,1.0,6.0,58,0.00,,,0.00,VWS V14.01,2013-02-13 15:18:00,
2013-02-13 10:24:00,41.1,27.9,29.79,NNW,334,3.0,6.0,59,0.00,,,0.00,VWS V14.01,2013-02-13 15:24:00,
2013-02-13 10:29:00,40.9,27.3,29.78,NNW,329,2.0,6.0,58,0.00,,,0.00,VWS V14.01,2013-02-13 15:29:00,
2013-02-13 10:30:00,40.3,28.7,29.78,SE,137,3.0,8.0,63,0.00,,,0.00,VWS V14.01,2013-02-13 15:30:00,
2013-02-13 10:34:00,40.7,27.5,29.78,WNW,286,0.0,3.0,59,0.00,,,0.00,VWS V14.01,2013-02-13 15:34:00,
2013-02-13 10:39:00,41.1,27.0,29.78,NW,317,3.0,5.0,57,0.00,,,0.00,VWS V14.01,2013-02-13 15:39:00,
2013-02-13 10:44:00,41.2,27.6,29.78,NW,317,3.0,5.0,58,0.00,,,0.00,VWS V14.01,2013-02-13 15:44:00,
2013-02-13 10:50:00,41.3,27.2,29.77,NW,317,0.0,5.0,57,0.00,,,0.00,VWS V14.01,2013-02-13 15:50:00,
2013-02-13 10:55:00,41.8,29.4,29.78,NW,317,2.0,5.0,61,0.00,,,0.00,VWS V14.01,2013-02-13 15:55:00,
2013-02-13 11:00:00,41.9,27.8,29.78,NW,310,2.0,5.0,57,0.00,,,0.00,VWS V14.01,2013-02-13 16:00:00,
2013-02-13 11:05:00,42.2,27.2,29.78,NNW,331,0.0,5.0,55,0.00,,,0.00,VWS V14.01,2013-02-13 16:05:00,
2013-02-13 11:10:00,42.5,27.5,29.78,WNW,300,1.0,5.0,55,0.00,,,0.00,VWS V14.01,2013-02-13 16:10:00,
2013-02-13 11:16:00,44.2,29.1,29.78,SW,233,1.0,5.0,55,0.00,,,0.00,VWS V14.01,2013-02-13 16:16:00,
2013-02-13 11:21:00,43.3,29.1,29.78,South,179,3.0,5.0,57,0.00,,,0.00,VWS V14.01,2013-02-13 16:21:00,
2013-02-13 11:27:00,41.7,28.9,29.78,South,189,3.0,6.0,60,0.00,,,0.00,VWS V14.01,2013-02-13 16:27:00,
2013-02-13 11:30:00,40.0,28.8,29.77,SSE,163,2.0,6.0,64,0.00,,,0.00,VWS V14.01,2013-02-13 16:30:00,
2013-02-13 11:31:00,40.4,28.8,29.78,SSE,150,3.0,8.0,63,0.00,,,0.00,VWS V14.01,2013-02-13 16:31:00,
2013-02-13 11:38:00,39.9,29.5,29.77,SE,135,4.0,9.0,66,0.00,,,0.00,VWS V14.01,2013-02-13 16:38:00,
2013-02-13 11:43:00,39.8,29.0,29.77,SSE,153,4.0,9.0,65,0.00,,,0.00,VWS V14.01,2013-02-13 16:43:00,
2013-02-13 11:48:00,39.8,28.6,29.77,SE,144,2.0,9.0,64,0.00,,,0.00,VWS V14.01,2013-02-13 16:48:00,
2013-02-13 11:53:00,40.2,29.4,29.77,ESE,115,1.0,9.0,65,0.00,,,0.00,VWS V14.01,2013-02-13 16:53:00,
2013-02-13 11:58:00,40.2,28.6,29.77,SSW,209,4.0,9.0,63,0.00,,,0.00,VWS V14.01,2013-02-13 16:58:00,
2013-02-13 12:00:00,39.6,28.8,29.77,South,181,2.0,10.0,65,0.00,,,0.00,VWS V14.01,2013-02-13 17:00:00,
2013-02-13 12:03:00,40.0,28.8,29.77,SSE,167,2.0,4.0,64,0.00,,,0.00,VWS V14.01,2013-02-13 17:03:00,
2013-02-13 12:08:00,40.1,29.7,29.77,South,184,2.0,5.0,66,0.00,,,0.00,VWS V14.01,2013-02-13 17:08:00,
2013-02-13 12:14:00,40.2,29.0,29.77,SE,128,1.0,5.0,64,0.00,,,0.00,VWS V14.01,2013-02-13 17:14:00,
2013-02-13 12:21:00,40.1,28.5,29.77,ESE,123,4.0,5.0,63,0.00,,,0.00,VWS V14.01,2013-02-13 17:21:00,
2013-02-13 12:26:00,40.0,28.4,29.77,SSE,165,3.0,6.0,63,0.00,,,0.00,VWS V14.01,2013-02-13 17:26:00,
2013-02-13 12:30:00,39.7,28.5,29.75,SSW,201,4.0,8.0,64,0.00,,,0.00,VWS V14.01,2013-02-13 17:30:00,
2013-02-13 12:31:00,39.9,28.3,29.77,SSE,153,4.0,6.0,63,0.00,,,0.00,VWS V14.01,2013-02-13 17:31:00,
2013-02-13 12:36:00,40.1,28.1,29.77,SSW,194,6.0,8.0,62,0.00,,,0.00,VWS V14.01,2013-02-13 17:36:00,
2013-02-13 12:42:00,39.6,27.3,29.77,SSW,199,5.0,10.0,61,0.00,,,0.00,VWS V14.01,2013-02-13 17:42:00,
2013-02-13 12:47:00,39.5,28.0,29.77,WSW,239,4.0,10.0,63,0.00,,,0.00,VWS V14.01,2013-02-13 17:47:00,
2013-02-13 12:52:00,39.4,28.6,29.77,SSE,163,2.0,10.0,65,0.00,,,0.00,VWS V14.01,2013-02-13 17:52:00,
2013-02-13 12:57:00,39.4,28.6,29.77,South,171,3.0,10.0,65,0.00,,,0.00,VWS V14.01,2013-02-13 17:57:00,
2013-02-13 13:00:00,39.2,28.8,29.75,SSW,198,2.0,9.0,66,0.00,,,0.00,VWS V14.01,2013-02-13 18:00:00,
2013-02-13 13:03:00,39.6,28.8,29.76,SSE,164,2.0,5.0,65,0.00,,,0.00,VWS V14.01,2013-02-13 18:03:00,
2013-02-13 13:08:00,39.8,29.0,29.76,South,170,1.0,5.0,65,0.00,,,0.00,VWS V14.01,2013-02-13 18:08:00,
2013-02-13 13:13:00,39.9,28.7,29.76,SW,214,2.0,8.0,64,0.00,,,0.00,VWS V14.01,2013-02-13 18:13:00,
2013-02-13 13:18:00,40.0,29.2,29.76,South,173,3.0,8.0,65,0.00,,,0.00,VWS V14.01,2013-02-13 18:18:00,
2013-02-13 13:24:00,39.7,28.5,29.76,SSW,199,0.0,8.0,64,0.00,,,0.00,VWS V14.01,2013-02-13 18:24:00,
2013-02-13 13:29:00,39.8,28.6,29.75,SSW,202,7.0,8.0,64,0.00,,,0.00,VWS V14.01,2013-02-13 18:29:00,
2013-02-13 13:30:00,40.2,29.4,29.74,WSW,238,3.0,11.0,65,0.00,,,0.00,VWS V14.01,2013-02-13 18:30:00,
2013-02-13 13:34:00,39.7,28.1,29.75,South,181,7.0,9.0,63,0.00,,,0.00,VWS V14.01,2013-02-13 18:34:00,
2013-02-13 13:39:00,39.5,28.4,29.75,SE,143,7.0,9.0,64,0.00,,,0.00,VWS V14.01,2013-02-13 18:39:00,
2013-02-13 13:44:00,39.5,28.7,29.75,South,188,5.0,9.0,65,0.00,,,0.00,VWS V14.01,2013-02-13 18:44:00,
2013-02-13 13:49:00,39.7,28.9,29.75,SSE,149,9.0,9.0,65,0.00,,,0.00,VWS V14.01,2013-02-13 18:49:00,
2013-02-13 13:55:00,39.4,28.6,29.75,SSW,213,1.0,9.0,65,0.00,,,0.00,VWS V14.01,2013-02-13 18:55:00,
2013-02-13 14:00:00,39.1,28.3,29.75,SSW,205,2.0,9.0,65,0.00,,,0.00,VWS V14.01,2013-02-13 19:00:00,
2013-02-13 14:05:00,39.3,28.5,29.74,SSW,192,4.0,11.0,65,0.00,,,0.00,VWS V14.01,2013-02-13 19:05:00,
2013-02-13 14:10:00,39.3,28.5,29.74,South,184,3.0,11.0,65,0.00,,,0.00,VWS V14.01,2013-02-13 19:10:00,
2013-02-13 14:16:00,39.3,28.9,29.74,SSE,148,3.0,11.0,66,0.00,,,0.00,VWS V14.01,2013-02-13 19:16:00,
2013-02-13 14:21:00,39.1,28.3,29.73,SW,219,2.0,11.0,65,0.00,,,0.00,VWS V14.01,2013-02-13 19:21:00,
2013-02-13 14:26:00,39.8,29.0,29.74,SW,221,2.0,11.0,65,0.00,,,0.00,VWS V14.01,2013-02-13 19:26:00,
2013-02-13 14:30:00,38.2,28.2,29.71,SSW,199,4.0,9.0,67,0.00,,,0.00,VWS V14.01,2013-02-13 19:30:00,
2013-02-13 14:31:00,40.1,29.3,29.74,SW,223,2.0,11.0,65,0.00,,,0.00,VWS V14.01,2013-02-13 19:31:00,
2013-02-13 14:37:00,39.7,27.8,29.74,SW,230,11.0,11.0,62,0.00,,,0.00,VWS V14.01,2013-02-13 19:37:00,
2013-02-13 14:42:00,39.4,28.2,29.74,SSW,192,2.0,11.0,64,0.00,,,0.00,VWS V14.01,2013-02-13 19:42:00,
2013-02-13 14:49:00,39.6,28.8,29.73,WSW,245,3.0,11.0,65,0.00,,,0.00,VWS V14.01,2013-02-13 19:49:00,
2013-02-13 14:54:00,39.7,28.9,29.73,SW,226,3.0,11.0,65,0.00,,,0.00,VWS V14.01,2013-02-13 19:54:00,
2013-02-13 14:59:00,39.8,29.0,29.73,SW,228,1.0,11.0,65,0.00,,,0.00,VWS V14.01,2013-02-13 19:59:00,
2013-02-13 15:00:00,38.4,28.8,29.69,ESE,114,0.0,7.0,68,0.00,,,0.00,VWS V14.01,2013-02-13 20:00:00,
2013-02-13 15:05:00,39.7,28.5,29.72,SSW,193,1.0,8.0,64,0.00,,,0.00,VWS V14.01,2013-02-13 20:05:00,
2013-02-13 15:10:00,39.4,28.6,29.72,SSW,209,0.0,8.0,65,0.00,,,0.00,VWS V14.01,2013-02-13 20:10:00,
2013-02-13 15:15:00,38.8,28.1,29.71,SW,229,1.0,8.0,65,0.00,,,0.00,VWS V14.01,2013-02-13 20:15:00,
2013-02-13 15:20:00,38.7,28.0,29.71,South,186,2.0,8.0,65,0.00,,,0.00,VWS V14.01,2013-02-13 20:20:00,
2013-02-13 15:26:00,38.4,28.0,29.71,SSW,195,5.0,8.0,66,0.00,,,0.00,VWS V14.01,2013-02-13 20:26:00,
2013-02-13 15:30:00,36.9,28.4,29.69,WSW,248,0.0,7.0,71,0.00,,,0.00,VWS V14.01,2013-02-13 20:30:00,
2013-02-13 15:31:00,38.2,28.2,29.71,SSW,213,4.0,9.0,67,0.00,,,0.00,VWS V14.01,2013-02-13 20:31:00,
2013-02-13 15:37:00,38.1,28.5,29.70,SSW,201,3.0,7.0,68,0.00,,,0.00,VWS V14.01,2013-02-13 20:37:00,
2013-02-13 15:42:00,38.3,28.7,29.70,ESE,117,0.0,7.0,68,0.00,,,0.00,VWS V14.01,2013-02-13 20:42:00,
2013-02-13 15:47:00,38.6,29.0,29.70,SSE,165,2.0,7.0,68,0.00,,,0.00,VWS V14.01,2013-02-13 20:47:00,
2013-02-13 15:53:00,38.9,28.9,29.70,SSE,167,2.0,7.0,67,0.00,,,0.00,VWS V14.01,2013-02-13 20:53:00,
2013-02-13 15:58:00,38.6,28.6,29.69,SSW,198,1.0,7.0,67,0.00,,,0.00,VWS V14.01,2013-02-13 20:58:00,
2013-02-13 16:00:00,35.5,28.4,29.70,South,186,0.0,4.0,75,0.00,,,0.00,VWS V14.01,2013-02-13 21:00:00,
2013-02-13 16:03:00,38.4,28.8,29.69,SSE,148,4.0,6.0,68,0.00,,,0.00,VWS V14.01,2013-02-13 21:03:00,
2013-02-13 16:09:00,38.2,28.6,29.70,ESE,119,2.0,6.0,68,0.00,,,0.00,VWS V14.01,2013-02-13 21:09:00,
2013-02-13 16:14:00,38.0,28.8,29.69,SSW,194,1.0,6.0,69,0.00,,,0.00,VWS V14.01,2013-02-13 21:14:00,
2013-02-13 16:19:00,37.8,28.6,29.69,SSW,196,1.0,6.0,69,0.00,,,0.00,VWS V14.01,2013-02-13 21:19:00,
2013-02-13 16:25:00,37.5,28.6,29.69,SSW,202,0.0,7.0,70,0.00,,,0.00,VWS V14.01,2013-02-13 21:25:00,
2013-02-13 16:30:00,34.7,28.9,29.70,South,173,2.0,6.0,79,0.00,,,0.00,VWS V14.01,2013-02-13 21:30:00,
2013-02-13 16:31:00,37.0,28.5,29.69,SSE,165,1.0,7.0,71,0.00,,,0.00,VWS V14.01,2013-02-13 21:31:00,
2013-02-13 16:36:00,36.8,28.6,29.69,South,177,0.0,4.0,72,0.00,,,0.00,VWS V14.01,2013-02-13 21:36:00,
2013-02-13 16:41:00,36.5,28.4,29.69,SSW,196,1.0,4.0,72,0.00,,,0.00,VWS V14.01,2013-02-13 21:41:00,
2013-02-13 16:46:00,36.3,28.5,29.69,SSW,194,1.0,4.0,73,0.00,,,0.00,VWS V14.01,2013-02-13 21:46:00,
2013-02-13 16:51:00,36.0,28.2,29.69,South,183,1.0,4.0,73,0.00,,,0.00,VWS V14.01,2013-02-13 21:51:00,
2013-02-13 16:58:00,35.7,28.6,29.70,SSW,200,2.0,4.0,75,0.00,,,0.00,VWS V14.01,2013-02-13 21:58:00,
2013-02-13 17:00:00,34.5,29.3,29.70,South,169,0.0,4.0,81,0.00,,,0.00,VWS V14.01,2013-02-13 22:00:00,
2013-02-13 17:03:00,35.5,28.7,29.70,SSE,161,2.0,6.0,76,0.00,,,0.00,VWS V14.01,2013-02-13 22:03:00,
2013-02-13 17:09:00,35.3,28.8,29.70,SSW,200,1.0,6.0,77,0.00,,,0.00,VWS V14.01,2013-02-13 22:09:00,
2013-02-13 17:15:00,35.0,28.9,29.70,SSW,211,4.0,6.0,78,0.00,,,0.00,VWS V14.01,2013-02-13 22:15:00,
2013-02-13 17:20:00,34.9,29.1,29.70,South,174,0.0,6.0,79,0.00,,,0.00,VWS V14.01,2013-02-13 22:20:00,
2013-02-13 17:25:00,34.8,29.0,29.70,SSE,150,2.0,6.0,79,0.00,,,0.00,VWS V14.01,2013-02-13 22:25:00,
2013-02-13 17:30:00,34.7,28.9,29.70,SSE,162,1.0,6.0,79,0.00,,,0.00,VWS V14.01,2013-02-13 22:30:00,
2013-02-13 17:35:00,34.7,28.9,29.70,SSE,147,2.0,3.0,79,0.00,,,0.00,VWS V14.01,2013-02-13 22:35:00,
2013-02-13 17:40:00,34.6,29.1,29.70,SSE,154,0.0,4.0,80,0.00,,,0.00,VWS V14.01,2013-02-13 22:40:00,
2013-02-13 17:45:00,34.6,28.8,29.70,SSE,160,1.0,4.0,79,0.00,,,0.00,VWS V14.01,2013-02-13 22:45:00,
2013-02-13 17:50:00,34.6,29.1,29.70,SSE,153,1.0,4.0,80,0.00,,,0.00,VWS V14.01,2013-02-13 22:50:00,
2013-02-13 17:55:00,34.5,29.0,29.70,SSE,153,1.0,4.0,80,0.00,,,0.00,VWS V14.01,2013-02-13 22:55:00,
2013-02-13 18:00:00,34.5,29.3,29.70,SSE,167,1.0,4.0,81,0.00,,,0.00,VWS V14.01,2013-02-13 23:00:00,
2013-02-13 18:05:00,34.5,29.3,29.70,SSE,167,1.0,3.0,81,0.00,,,0.00,VWS V14.01,2013-02-13 23:05:00,
2013-02-13 18:10:00,34.5,29.0,29.69,South,169,1.0,3.0,80,0.00,,,0.00,VWS V14.01,2013-02-13 23:10:00,
2013-02-13 18:15:00,34.4,28.9,29.68,SSE,167,0.0,3.0,80,0.00,,,0.00,VWS V14.01,2013-02-13 23:15:00,
2013-02-13 18:20:00,34.4,28.9,29.68,SSE,167,0.0,3.0,80,0.00,,,0.00,VWS V14.01,2013-02-13 23:20:00,
2013-02-13 18:25:00,34.4,29.2,29.68,South,182,2.0,4.0,81,0.00,,,0.00,VWS V14.01,2013-02-13 23:25:00,
2013-02-13 18:30:00,34.4,29.5,29.68,South,182,1.0,4.0,82,0.00,,,0.00,VWS V14.01,2013-02-13 23:30:00,
2013-02-13 18:35:00,34.3,29.7,29.68,South,182,0.0,1.0,83,0.00,,,0.00,VWS V14.01,2013-02-13 23:35:00,
2013-02-13 18:40:00,34.3,29.4,29.68,South,182,1.0,2.0,82,0.00,,,0.00,VWS V14.01,2013-02-13 23:40:00,
2013-02-13 18:45:00,34.2,29.3,29.68,South,182,0.0,2.0,82,0.00,,,0.00,VWS V14.01,2013-02-13 23:45:00,
2013-02-13 18:50:00,34.1,29.2,29.68,South,182,0.0,2.0,82,0.00,,,0.00,VWS V14.01,2013-02-13 23:50:00,
2013-02-13 18:56:00,33.9,29.0,29.68,South,182,0.0,2.0,82,0.00,,,0.00,VWS V14.01,2013-02-13 23:56:00,
2013-02-13 19:00:00,31.9,27.6,29.67,South,182,0.0,2.0,84,0.00,,,0.00,VWS V14.01,2013-02-14 00:00:00,
2013-02-13 19:01:00,33.5,28.6,29.67,South,182,0.0,2.0,82,0.00,,,0.00,VWS V14.01,2013-02-14 00:01:00,
2013-02-13 19:10:00,32.9,28.3,29.68,South,182,0.0,1.0,83,0.00,,,0.00,VWS V14.01,2013-02-14 00:10:00,
2013-02-13 19:15:00,32.5,28.2,29.67,South,182,0.0,1.0,84,0.00,,,0.00,VWS V14.01,2013-02-14 00:15:00,
2013-02-13 19:20:00,32.2,27.9,29.67,South,182,0.0,1.0,84,0.00,,,0.00,VWS V14.01,2013-02-14 00:20:00,
2013-02-13 19:25:00,32.1,27.8,29.67,South,182,0.0,1.0,84,0.00,,,0.00,VWS V14.01,2013-02-14 00:25:00,
2013-02-13 19:30:00,31.9,27.9,29.67,South,182,0.0,1.0,85,0.00,,,0.00,VWS V14.01,2013-02-14 00:30:00,
2013-02-13 19:35:00,31.9,27.9,29.67,South,182,0.0,1.0,85,0.00,,,0.00,VWS V14.01,2013-02-14 00:35:00,
2013-02-13 19:40:00,31.8,27.8,29.66,South,182,1.0,2.0,85,0.00,,,0.00,VWS V14.01,2013-02-14 00:40:00,
2013-02-13 19:45:00,31.8,27.8,29.66,South,182,0.0,2.0,85,0.00,,,0.00,VWS V14.01,2013-02-14 00:45:00,
2013-02-13 19:50:00,31.8,27.8,29.66,South,182,0.0,2.0,85,0.00,,,0.00,VWS V14.01,2013-02-14 00:50:00,
2013-02-13 19:55:00,31.8,27.8,29.67,South,182,0.0,2.0,85,0.00,,,0.00,VWS V14.01,2013-02-14 00:55:00,
2013-02-13 20:00:00,31.9,27.6,29.67,South,182,0.0,2.0,84,0.00,,,0.00,VWS V14.01,2013-02-14 01:00:00,
2013-02-13 20:05:00,32.0,28.0,29.67,South,182,0.0,0.0,85,0.00,,,0.00,VWS V14.01,2013-02-14 01:05:00,
2013-02-13 20:10:00,31.9,27.9,29.67,South,182,0.0,0.0,85,0.00,,,0.00,VWS V14.01,2013-02-14 01:10:00,
2013-02-13 20:15:00,31.8,27.8,29.67,South,182,0.0,0.0,85,0.00,,,0.00,VWS V14.01,2013-02-14 01:15:00,
2013-02-13 20:20:00,31.8,28.1,29.67,South,182,0.0,0.0,86,0.00,,,0.00,VWS V14.01,2013-02-14 01:20:00,
2013-02-13 20:25:00,31.8,28.1,29.66,South,182,0.0,0.0,86,0.00,,,0.00,VWS V14.01,2013-02-14 01:25:00,
2013-02-13 20:30:00,31.6,27.9,29.65,South,182,0.0,1.0,86,0.00,,,0.00,VWS V14.01,2013-02-14 01:30:00,
2013-02-13 20:35:00,31.4,27.7,29.65,South,182,0.0,0.0,86,0.00,,,0.00,VWS V14.01,2013-02-14 01:35:00,
2013-02-13 20:40:00,31.2,27.5,29.65,South,182,0.0,0.0,86,0.00,,,0.00,VWS V14.01,2013-02-14 01:40:00,
2013-02-13 20:45:00,31.1,27.7,29.65,South,182,0.0,1.0,87,0.00,,,0.00,VWS V14.01,2013-02-14 01:45:00,
2013-02-13 20:50:00,31.2,27.8,29.65,South,182,0.0,1.0,87,0.00,,,0.00,VWS V14.01,2013-02-14 01:50:00,
2013-02-13 20:55:00,31.2,27.8,29.65,South,182,0.0,1.0,87,0.00,,,0.00,VWS V14.01,2013-02-14 01:55:00,
2013-02-13 21:00:00,31.2,27.8,29.65,South,182,0.0,1.0,87,0.00,,,0.00,VWS V14.01,2013-02-14 02:00:00,
2013-02-13 21:05:00,31.1,27.7,29.65,South,182,0.0,0.0,87,0.00,,,0.00,VWS V14.01,2013-02-14 02:05:00,
2013-02-13 21:10:00,31.0,27.6,29.65,South,182,0.0,1.0,87,0.00,,,0.00,VWS V14.01,2013-02-14 02:10:00,
2013-02-13 21:15:00,30.7,27.3,29.65,NW,321,2.0,2.0,87,0.00,,,0.00,VWS V14.01,2013-02-14 02:15:00,
2013-02-13 21:20:00,30.6,25.8,29.66,NW,321,0.0,2.0,82,0.00,,,0.00,VWS V14.01,2013-02-14 02:20:00,
2013-02-13 21:25:00,30.5,25.7,29.66,NW,321,0.0,2.0,82,0.00,,,0.00,VWS V14.01,2013-02-14 02:25:00,
2013-02-13 21:30:00,30.5,25.7,29.66,NW,321,0.0,2.0,82,0.00,,,0.00,VWS V14.01,2013-02-14 02:30:00,
2013-02-13 21:35:00,30.5,25.7,29.66,NW,321,0.0,0.0,82,0.00,,,0.00,VWS V14.01,2013-02-14 02:35:00,
2013-02-13 21:40:00,30.5,25.7,29.66,NW,321,0.0,1.0,82,0.00,,,0.00,VWS V14.01,2013-02-14 02:40:00,
2013-02-13 21:45:00,30.6,25.8,29.65,NW,321,0.0,1.0,82,0.00,,,0.00,VWS V14.01,2013-02-14 02:45:00,
2013-02-13 21:50:00,30.7,25.9,29.65,NW,321,0.0,1.0,82,0.00,,,0.00,VWS V14.01,2013-02-14 02:50:00,
2013-02-13 21:55:00,30.7,25.9,29.65,NW,321,1.0,2.0,82,0.00,,,0.00,VWS V14.01,2013-02-14 02:55:00,
2013-02-13 22:00:00,30.6,25.8,29.65,NW,321,0.0,2.0,82,0.00,,,0.00,VWS V14.01,2013-02-14 03:00:00,
2013-02-13 22:05:00,30.5,25.7,29.66,NW,321,0.0,0.0,82,0.00,,,0.00,VWS V14.01,2013-02-14 03:05:00,
2013-02-13 22:10:00,30.6,25.8,29.65,NW,321,0.0,0.0,82,0.00,,,0.00,VWS V14.01,2013-02-14 03:10:00,
2013-02-13 22:15:00,30.6,25.8,29.65,NW,321,0.0,1.0,82,0.00,,,0.00,VWS V14.01,2013-02-14 03:15:00,
2013-02-13 22:20:00,30.7,25.9,29.65,NW,321,0.0,1.0,82,0.00,,,0.00,VWS V14.01,2013-02-14 03:20:00,
2013-02-13 22:25:00,30.8,26.3,29.64,NW,321,0.0,1.0,83,0.00,,,0.00,VWS V14.01,2013-02-14 03:25:00,
2013-02-13 22:30:00,30.9,26.4,29.65,NW,321,0.0,1.0,83,0.00,,,0.00,VWS V14.01,2013-02-14 03:30:00,
2013-02-13 22:35:00,31.0,26.2,29.64,NW,321,1.0,3.0,82,0.00,,,0.00,VWS V14.01,2013-02-14 03:35:00,
2013-02-13 22:40:00,31.1,26.3,29.63,NW,321,2.0,3.0,82,0.00,,,0.00,VWS V14.01,2013-02-14 03:40:00,
2013-02-13 22:45:00,31.0,25.9,29.63,NW,304,2.0,4.0,81,0.00,,,0.00,VWS V14.01,2013-02-14 03:45:00,
2013-02-13 22:50:00,31.0,25.9,29.63,WNW,303,2.0,4.0,81,0.00,,,0.00,VWS V14.01,2013-02-14 03:50:00,
2013-02-13 22:55:00,30.9,25.8,29.61,WNW,303,1.0,4.0,81,0.00,,,0.00,VWS V14.01,2013-02-14 03:55:00,
2013-02-13 23:00:00,31.8,26.6,29.65,WNW,299,0.0,1.0,81,0.00,,,0.00,VWS V14.01,2013-02-14 04:00:00,
2013-02-13 23:01:00,30.9,25.8,29.60,NW,304,2.0,4.0,81,0.00,,,0.00,VWS V14.01,2013-02-14 04:01:00,
2013-02-13 23:06:00,30.9,26.1,29.59,WNW,303,3.0,4.0,82,0.00,,,0.00,VWS V14.01,2013-02-14 04:06:00,
2013-02-13 23:11:00,31.0,26.2,29.58,WNW,299,0.0,4.0,82,0.00,,,0.00,VWS V14.01,2013-02-14 04:11:00,
2013-02-13 23:16:00,31.1,26.0,29.60,WNW,298,1.0,4.0,81,0.00,,,0.00,VWS V14.01,2013-02-14 04:16:00,
2013-02-13 23:21:00,31.2,26.1,29.62,WNW,299,1.0,4.0,81,0.00,,,0.00,VWS V14.01,2013-02-14 04:21:00,
2013-02-13 23:26:00,31.3,26.2,29.62,WNW,298,0.0,4.0,81,0.00,,,0.00,VWS V14.01,2013-02-14 04:26:00,
2013-02-13 23:30:00,31.4,26.2,29.64,WNW,298,0.0,3.0,81,0.00,,,0.00,VWS V14.01,2013-02-14 04:30:00,
2013-02-13 23:31:00,31.4,26.2,29.62,WNW,299,0.0,4.0,81,0.00,,,0.00,VWS V14.01,2013-02-14 04:31:00,
2013-02-13 23:36:00,31.5,26.4,29.63,WNW,299,0.0,0.0,81,0.00,,,0.00,VWS V14.01,2013-02-14 04:36:00,
2013-02-13 23:41:00,31.5,26.4,29.63,WNW,299,0.0,0.0,81,0.00,,,0.00,VWS V14.01,2013-02-14 04:41:00,
2013-02-13 23:46:00,31.7,26.5,29.64,WNW,299,0.0,1.0,81,0.00,,,0.00,VWS V14.01,2013-02-14 04:46:00,
2013-02-13 23:51:00,31.9,26.7,29.64,WNW,299,0.0,1.0,81,0.00,,,0.00,VWS V14.01,2013-02-14 04:51:00,
2013-02-13 23:56:00,31.9,26.7,29.65,WNW,298,0.0,1.0,81,0.00,,,0.00,VWS V14.01,2013-02-14 04:56:00,